Zurück zum Katalog

STARLINK-3863

AktivKommunikationVLEO
NORAD 52465·PAYLOAD·🇺🇸 United States

Gestartet May 6, 2022 von Cape Canaveral Space Force Station

Loading…

Nächste Überflüge (nächste 24 Stunden)

TLE

AktuellSource: CelesTrak SupGP

Epoche: Sep 15, 2026, 00:56 UTC

1 52465C 22049Q   26258.03937500  .00009893  00000+0  28303-3 0  2584
2 52465  53.1587 269.7595 0001227  86.3031  25.1432 15.35395279    16

Verfolge STARLINK-3863 in Echtzeit mit AllMySat

Download on the App Store